Regional Weather Roundup
Issued by NWS

Home | Current Version | Previous Version | Graphics & Text | Print | Product List | Glossary On
Versions: 1 2 3 4 5 6 7 8 9 10 11 12 13 14 15 16 17 18 19 20 21 22 23 24 25 26 27 28 29 30 31 32 33 34 35 36 37 38 39 40 41 42 43 44 45 46 47 48 49 50
000
ASUS43 KLMK 020302
RWRKY
KENTUCKY REGIONAL WEATHER ROUNDUP
NATIONAL WEATHER SERVICE LOUISVILLE KY
1100 PM EDT TUE SEP 01 2015

NOTE "FAIR" INDICATES FEW OR NO CLOUDS BELOW 12,000 FEET
WITH NO SIGNIFICANT WEATHER AND/OR OBSTRUCTIONS TO VISIBILITY.

KYZ001>023-026-027-061>063-070>075-020400-
WESTERN AND SOUTH CENTRAL KENTUCKY

CITY           SKY/WX    TMP DP  RH WIND       PRES   REMARKS
PADUCAH        PTCLDY    73  69  87 CALM      30.09R
HENDERSON      CLEAR     72  66  83 CALM      30.09S
OWENSBORO      CLEAR     76  70  82 CALM      30.11R
HOPKINSVILLE   PTCLDY    75  69  83 N5        30.10S
BOWLING GREEN  CLEAR     74  67  78 CALM      30.11S
GLASGOW        NOT AVBL
$$

KYZ024-025-028>034-038-045-046-053-020400-
NORTH CENTRAL KENTUCKY

CITY           SKY/WX    TMP DP  RH WIND       PRES   REMARKS
LOUISVILLE/SDF PTCLDY    81  64  56 CALM      30.11R
LOUISVILLE/LOU PTCLDY    74  70  87 CALM      30.12R
FORT KNOX      CLEAR     69  66  90 CALM      30.11R
$$

KYZ035>037-039>044-047>052-055>060-089>105-020400-
NORTHEAST KENTUCKY

CITY           SKY/WX    TMP DP  RH WIND       PRES   REMARKS
LEXINGTON      MOCLDY    75  66  73 CALM      30.13S
COVINGTON      CLEAR     73  67  81 CALM      30.12R
FRANKFORT      PTCLDY    73  66  78 CALM      30.12R
$$

KYZ054-064>069-076>088-106>120-020400-
SOUTHEAST KENTUCKY

CITY           SKY/WX    TMP DP  RH WIND       PRES   REMARKS
JACKSON        MOCLDY    76  64  66 CALM      30.15S
LONDON         PTCLDY    73  66  78 CALM      30.15R
SOMERSET       NOT AVBL
MIDDLESBORO    CLEAR     71  68  90 CALM      30.15S
MONTICELLO     CLEAR     68  68 100 CALM      30.17R FOG
$$




USA.gov is the U.S. government's official web portal to all federal, state and local government web resources and services.